Find Starlink 35272

NORAD ID: 65899 Int'l Des: 2025-224 Owner: SPXS Country: US Constellation: starlink operational
LEOCIRCULAR

实时位置

正在加载3D地球...

关于 Starlink 35272

正在加载描述...

即将过境

Passes for default location (London). Set your location on the main map for personalized predictions.

高度历史

Loading altitude history...

两行轨道根数

1 65899U 25224T 26105.56330879 .00005780 00000-0 20711-3 0 9991
2 65899 53.1586 199.7941 0001115 76.2135 283.8990 15.30200571 30511
Epoch: Apr 15, 2026 • Age: 17 hours

当前状态

高度 485.1 km
速度 7.62 km/s
星下点 -30.44°S, 105.92°E
发射日期 Oct 7, 2025
运行时间 0.5 years
类型 internet

技术详情

分类 Payload
质量 575.00 kg
干质量 530.00 kg
总质量 575.00 kg
长度 0.30 m
直径 4.10 m
跨度 29.00 m
形状 Box + pan
制造商 SPXS
平台类型 Starlink V2MO
阶段状态 In Orbit
所有者/国家 SPXS/US

Most Searched